Location: Castifao
(42.5040°N, 9.1124°E)
Time: 15:35:21
(UTC+00:00)

Iridium 96 - Pass Details

Date: 23 January 2020
Orbit: 262 x 418 km, 86.4° (Epoch: 24 February)

Event Time Altitude Azimuth Distance (km) Brightness Sun altitude
Exits shadow 17:13:51 -1° 8° (N) 1,976 7.4 -9.2°
Rises 17:14:00 0° 8° (N) 1,913 7.3 -9.2°
Reaches altitude 10° 17:15:58 10° 22° (NNE) 1,113 6.0 -9.6°
Maximum altitude 17:18:02 26° 84° (E) 604 4.5 -9.9°
Drops below altitude 10° 17:20:12 10° 146° (SE) 1,153 6.3 -10.3°
Sets 17:22:16 0° 159° (SSE) 2,003 7.7 -10.7°
